| time (UTC) | temp F | wind direction | speed knots | gust knots | rain 1hr in | rain 24hr in | rain mn in | humidity % | barometer mb |
| 20260507201005 | 58 | 142 | 8.7 | 16.5 | 0.00 | 0.00 | 0.00 | 92 | 1000.5 |
| 20260507195943 | 57 | 153 | 9.6 | 13.9 | 0.00 | 0.00 | 0.00 | 94 | 1000.6 |
| 20260507194943 | 53 | 236 | 9.6 | 13.9 | 0.00 | 0.00 | 0.00 | 93 | 1001.1 |
| 20260507193940 | 56 | 137 | 9.6 | 14.8 | 0.00 | 0.00 | 0.00 | 94 | 1000.7 |
| 20260507192956 | 55 | 191 | 8.7 | 13.0 | 0.00 | 0.00 | 0.00 | 94 | 1000.4 |
| 20260507191955 | 55 | 140 | 10.4 | 14.8 | 0.00 | 0.00 | 0.00 | 94 | 1000.4 |
| 20260507190503 | 55 | 121 | 16.5 | 24.3 | 0.00 | 0.00 | 0.00 | 94 | 998.7 |
| 20260507185700 | 61 | 143 | 13.9 | 23.5 | 0.00 | 0.00 | 0.00 | 81 | 1003.2 |
| 20260507140453 | 60 | 165 | 21.7 | 33.0 | 0.00 | 0.00 | 0.00 | 81 | 1004.0 |
| 20260507135439 | 60 | 200 | 20.0 | 33.0 | 0.00 | 0.00 | 0.00 | 81 | 1004.0 |
| 20260507134454 | 60 | 176 | 24.3 | 38.2 | 0.00 | 0.00 | 0.00 | 81 | 1004.0 |
| 20260507132944 | 59 | 186 | 25.2 | 39.1 | 0.00 | 0.00 | 0.00 | 81 | 1004.1 |
| 20260507131948 | 60 | 169 | 20.9 | 40.8 | 0.00 | 0.00 | 0.00 | 80 | 1004.6 |
| 20260507130944 | 60 | 157 | 27.8 | 40.0 | 0.00 | 0.00 | 0.00 | 78 | 1004.4 |
| 20260507125956 | 60 | 177 | 24.3 | 39.1 | 0.00 | 0.00 | 0.00 | 78 | 1004.1 |
| 20260507124932 | 59 | 170 | 22.6 | 40.8 | 0.00 | 0.00 | 0.00 | 79 | 1004.1 |
| 20260507123944 | 59 | 173 | 23.5 | 39.1 | 0.00 | 0.00 | 0.00 | 79 | 1004.0 |
| 20260507122937 | 60 | 177 | 23.5 | 37.4 | 0.00 | 0.00 | 0.00 | 78 | 1004.9 |
| 20260507121953 | 60 | 181 | 28.7 | 36.5 | 0.00 | 0.00 | 0.00 | 77 | 1004.6 |
| 20260507120952 | 60 | 201 | 28.7 | 38.2 | 0.00 | 0.00 | 0.00 | 77 | 1004.7 |
| 20260507115956 | 60 | 183 | 25.2 | 38.2 | 0.00 | 0.00 | 0.00 | 77 | 1004.9 |
| 20260507114948 | 60 | 196 | 30.4 | 40.0 | 0.00 | 0.00 | 0.00 | 77 | 1004.4 |
| 20260507113949 | 60 | 181 | 25.2 | 35.6 | 0.00 | 0.00 | 0.00 | 78 | 1005.0 |
| 20260507112951 | 61 | 185 | 25.2 | 36.5 | 0.00 | 0.00 | 0.00 | 77 | 1004.8 |
| 20260507111954 | 61 | 161 | 22.6 | 40.8 | 0.00 | 0.00 | 0.00 | 78 | 1004.9 |
| 20260507110956 | 60 | 163 | 21.7 | 33.9 | 0.00 | 0.00 | 0.00 | 78 | 1005.3 |
| 20260507105948 | 59 | 152 | 20.9 | 40.0 | 0.00 | 0.00 | 0.00 | 79 | 1005.7 |
| 20260507104959 | 58 | 176 | 21.7 | 31.3 | 0.00 | 0.00 | 0.00 | 80 | 1005.7 |
| 20260507103952 | 58 | 162 | 23.5 | 33.0 | 0.00 | 0.00 | 0.00 | 81 | 1005.5 |
| 20260507103420 | 58 | 193 | 21.7 | 33.0 | 0.00 | 0.00 | 0.00 | 81 | 1005.8 |
| 20260507102438 | 58 | 146 | 20.9 | 30.4 | 0.00 | 0.00 | 0.00 | 81 | 1006.1 |
| 20260507101934 | 58 | 188 | 20.9 | 33.0 | 0.00 | 0.00 | 0.00 | 81 | 1006.0 |
| 20260507100952 | 57 | 192 | 22.6 | 33.9 | 0.00 | 0.00 | 0.00 | 81 | 1006.3 |
| 20260507095948 | 57 | 177 | 20.9 | 27.8 | 0.00 | 0.00 | 0.00 | 81 | 1006.4 |
| 20260507094955 | 57 | 179 | 17.4 | 28.7 | 0.00 | 0.00 | 0.00 | 80 | 1006.4 |
| 20260507093926 | 57 | 163 | 19.1 | 29.5 | 0.00 | 0.00 | 0.00 | 79 | 1006.5 |
| 20260507093425 | 57 | 164 | 16.5 | 26.1 | 0.00 | 0.00 | 0.00 | 79 | 1006.4 |
| 20260507092925 | 57 | 150 | 15.6 | 26.9 | 0.00 | 0.00 | 0.00 | 79 | 1006.7 |
| 20260507092419 | 57 | 161 | 15.6 | 26.9 | 0.00 | 0.00 | 0.00 | 78 | 1006.9 |
| 20260507091917 | 57 | 166 | 13.0 | 26.9 | 0.00 | 0.00 | 0.00 | 78 | 1007.2 |
| 20260507090943 | 57 | 182 | 15.6 | 26.9 | 0.00 | 0.00 | 0.00 | 76 | 1007.4 |
| 20260507085952 | 56 | 153 | 12.2 | 24.3 | 0.00 | 0.00 | 0.00 | 76 | 1007.3 |
| 20260507084941 | 56 | 153 | 15.6 | 23.5 | 0.00 | 0.00 | 0.00 | 77 | 1007.4 |
| 20260507083920 | 56 | 174 | 15.6 | 26.1 | 0.00 | 0.00 | 0.00 | 76 | 1007.2 |
| 20260507082920 | 56 | 178 | 14.8 | 24.3 | 0.00 | 0.00 | 0.00 | 77 | 1007.9 |
| 20260507081929 | 56 | 161 | 14.8 | 22.6 | 0.00 | 0.00 | 0.00 | 78 | 1008.1 |
| 20260507080932 | 56 | 154 | 12.2 | 23.5 | 0.00 | 0.00 | 0.00 | 78 | 1008.7 |
| 20260507080427 | 56 | 181 | 14.8 | 23.5 | 0.00 | 0.00 | 0.00 | 78 | 1009.2 |
| 20260507075924 | 56 | 144 | 15.6 | 21.7 | 0.00 | 0.00 | 0.00 | 78 | 1008.8 |
| 20260507074939 | 55 | 162 | 13.9 | 22.6 | 0.00 | 0.00 | 0.00 | 78 | 1008.9 |
| 20260507073930 | 55 | 167 | 14.8 | 25.2 | 0.00 | 0.00 | 0.00 | 78 | 1009.0 |
| 20260507072919 | 55 | 135 | 14.8 | 22.6 | 0.00 | 0.00 | 0.00 | 78 | 1009.2 |
| 20260507072003 | 56 | 177 | 15.6 | 23.5 | 0.00 | 0.00 | 0.00 | 76 | 1009.3 |
| 20260507071416 | 56 | 178 | 15.6 | 21.7 | 0.00 | 0.00 | 0.00 | 76 | 1009.4 |
| 20260507070433 | 56 | 159 | 12.2 | 22.6 | 0.00 | 0.00 | 0.00 | 76 | 1009.1 |
| 20260507065901 | 56 | 174 | 17.4 | 22.6 | 0.00 | 0.00 | 0.00 | 76 | 1009.2 |
| 20260507064933 | 56 | 157 | 13.9 | 21.7 | 0.00 | 0.00 | 0.00 | 75 | 1009.5 |
| 20260507064409 | 56 | 160 | 13.9 | 26.1 | 0.00 | 0.00 | 0.00 | 75 | 1009.9 |
| 20260507063415 | 56 | 163 | 16.5 | 25.2 | 0.00 | 0.00 | 0.00 | 74 | 1010.4 |
| 20260507062903 | 56 | 158 | 13.9 | 25.2 | 0.00 | 0.00 | 0.00 | 74 | 1010.6 |
| 20260507061920 | 56 | 175 | 16.5 | 25.2 | 0.00 | 0.00 | 0.00 | 72 | 1010.6 |
| 20260507060927 | 56 | 175 | 17.4 | 26.1 | 0.00 | 0.00 | 0.00 | 72 | 1010.9 |
| 20260507055859 | 57 | 188 | 16.5 | 22.6 | 0.00 | 0.00 | 0.00 | 69 | 1011.0 |
| 20260507055116 | 57 | 179 | 14.8 | 22.6 | 0.00 | 0.00 | 0.00 | 71 | 1011.3 |
| 20260507053912 | 56 | 191 | 13.9 | 20.9 | 0.00 | 0.00 | 0.00 | 71 | 1011.5 |
| 20260507052937 | 57 | 185 | 13.0 | 22.6 | 0.00 | 0.00 | 0.00 | 72 | 1011.0 |
| 20260507052359 | 57 | 173 | 13.0 | 23.5 | 0.00 | 0.00 | 0.00 | 72 | 1011.0 |
| 20260507051404 | 57 | 179 | 16.5 | 24.3 | 0.00 | 0.00 | 0.00 | 71 | 1011.1 |
| 20260507050410 | 57 | 155 | 15.6 | 24.3 | 0.00 | 0.00 | 0.00 | 72 | 1011.0 |
| 20260507045907 | 57 | 173 | 15.6 | 24.3 | 0.00 | 0.00 | 0.00 | 73 | 1011.1 |
| 20260507044935 | 57 | 163 | 15.6 | 23.5 | 0.00 | 0.00 | 0.00 | 74 | 1011.4 |
| 20260507043919 | 57 | 159 | 14.8 | 24.3 | 0.00 | 0.00 | 0.00 | 74 | 1011.8 |
| 20260507042934 | 57 | 161 | 13.0 | 20.0 | 0.00 | 0.00 | 0.00 | 74 | 1012.2 |
| 20260507041934 | 58 | 173 | 15.6 | 21.7 | 0.00 | 0.00 | 0.00 | 73 | 1012.2 |
| 20260507040932 | 59 | 184 | 15.6 | 22.6 | 0.00 | 0.00 | 0.00 | 72 | 1012.8 |
| 20260507040407 | 59 | 185 | 13.0 | 23.5 | 0.00 | 0.00 | 0.00 | 72 | 1012.9 |
| 20260507035415 | 59 | 167 | 14.8 | 24.3 | 0.00 | 0.00 | 0.00 | 72 | 1012.9 |
| 20260507034913 | 59 | 188 | 16.5 | 20.9 | 0.00 | 0.00 | 0.00 | 72 | 1012.9 |
| 20260507034410 | 59 | 167 | 14.8 | 20.9 | 0.00 | 0.00 | 0.00 | 72 | 1013.1 |
| 20260507033416 | 59 | 188 | 15.6 | 26.1 | 0.00 | 0.00 | 0.00 | 73 | 1013.0 |
| 20260507032426 | 60 | 173 | 14.8 | 23.5 | 0.00 | 0.00 | 0.00 | 72 | 1013.3 |
| 20260507030921 | 59 | 150 | 16.5 | 26.1 | 0.00 | 0.00 | 0.00 | 73 | 1013.7 |
| 20260507030123 | 59 | 175 | 17.4 | 26.1 | 0.00 | 0.00 | 0.00 | 72 | 1014.1 |
| 20260507025428 | 59 | 154 | 16.5 | 22.6 | 0.00 | 0.00 | 0.00 | 71 | 1014.1 |
| 20260507024910 | 60 | 174 | 16.5 | 22.6 | 0.00 | 0.00 | 0.00 | 71 | 1014.4 |
| 20260507024409 | 60 | 197 | 16.5 | 22.6 | 0.00 | 0.00 | 0.00 | 71 | 1014.5 |
| 20260507023430 | 59 | 177 | 13.9 | 22.6 | 0.00 | 0.00 | 0.00 | 71 | 1014.7 |
| 20260507022441 | 60 | 166 | 13.0 | 20.0 | 0.00 | 0.00 | 0.00 | 71 | 1014.9 |
| 20260507021926 | 59 | 202 | 13.0 | 19.1 | 0.00 | 0.00 | 0.00 | 71 | 1015.0 |
| 20260507020936 | 59 | 192 | 14.8 | 22.6 | 0.00 | 0.00 | 0.00 | 71 | 1015.1 |
| 20260507015919 | 59 | 207 | 11.3 | 21.7 | 0.00 | 0.00 | 0.00 | 72 | 1015.2 |
| 20260507014929 | 59 | 176 | 13.9 | 22.6 | 0.00 | 0.00 | 0.00 | 73 | 1015.1 |
| 20260507013919 | 59 | 182 | 14.8 | 18.2 | 0.00 | 0.00 | 0.00 | 72 | 1015.4 |
| 20260507013414 | 59 | 165 | 13.0 | 20.9 | 0.00 | 0.00 | 0.00 | 73 | 1015.5 |
| 20260507012444 | 60 | 199 | 13.0 | 24.3 | 0.00 | 0.00 | 0.00 | 72 | 1015.5 |
| 20260507011930 | 60 | 184 | 17.4 | 25.2 | 0.00 | 0.00 | 0.00 | 72 | 1015.5 |
| 20260507010954 | 60 | 236 | 15.6 | 24.3 | 0.00 | 0.00 | 0.00 | 72 | 1015.6 |
| 20260507010426 | 59 | 212 | 13.9 | 22.6 | 0.00 | 0.00 | 0.00 | 73 | 1015.5 |
| 20260507005444 | 60 | 198 | 13.0 | 18.2 | 0.00 | 0.00 | 0.00 | 73 | 1015.5 |
| 20260507004932 | 59 | 223 | 12.2 | 22.6 | 0.00 | 0.00 | 0.00 | 73 | 1015.4 |
| 20260507004146 | 60 | 196 | 14.8 | 23.5 | 0.00 | 0.00 | 0.00 | 73 | 1015.1 |
| 20260507002959 | 60 | 185 | 14.8 | 28.7 | 0.00 | 0.00 | 0.00 | 73 | 1015.2 |
| 20260507002432 | 60 | 202 | 16.5 | 28.7 | 0.00 | 0.00 | 0.00 | 72 | 1015.1 |
| 20260507001440 | 60 | 199 | 14.8 | 22.6 | 0.00 | 0.00 | 0.00 | 73 | 1015.1 |
| 20260506235953 | 60 | 212 | 16.5 | 26.9 | 0.00 | 0.00 | 0.00 | 72 | 1014.8 |
| 20260506235424 | 60 | 202 | 16.5 | 28.7 | 0.00 | 0.00 | 0.00 | 73 | 1014.9 |
| 20260506234622 | 60 | 195 | 20.0 | 26.1 | 0.00 | 0.00 | 0.00 | 72 | 1014.7 |
| 20260506233922 | 61 | 174 | 18.2 | 25.2 | 0.00 | 0.00 | 0.00 | 72 | 1014.9 |
| 20260506232935 | 61 | 188 | 16.5 | 21.7 | 0.00 | 0.00 | 0.00 | 73 | 1015.1 |
| 20260506231939 | 61 | 170 | 15.6 | 23.5 | 0.00 | 0.00 | 0.00 | 72 | 1014.8 |
| 20260506230958 | 62 | 207 | 20.0 | 29.5 | 0.00 | 0.00 | 0.00 | 72 | 1014.7 |
| 20260506230418 | 61 | 196 | 20.9 | 32.2 | 0.00 | 0.00 | 0.00 | 72 | 1014.7 |
| 20260506225430 | 61 | 252 | 21.7 | 29.5 | 0.00 | 0.00 | 0.00 | 73 | 1014.4 |
| 20260506224924 | 62 | 196 | 20.9 | 30.4 | 0.00 | 0.00 | 0.00 | 72 | 1014.6 |
| 20260506223937 | 62 | 196 | 20.0 | 31.3 | 0.00 | 0.00 | 0.00 | 72 | 1014.4 |
| 20260506222928 | 62 | 195 | 21.7 | 30.4 | 0.00 | 0.00 | 0.00 | 72 | 1014.2 |
| 20260506221929 | 63 | 191 | 20.9 | 28.7 | 0.00 | 0.00 | 0.00 | 71 | 1014.5 |
| 20260506220948 | 63 | 185 | 20.9 | 30.4 | 0.00 | 0.00 | 0.00 | 71 | 1014.2 |
| 20260506215949 | 63 | 193 | 19.1 | 32.2 | 0.00 | 0.00 | 0.00 | 70 | 1014.4 |
| 20260506214438 | 64 | 177 | 18.2 | 31.3 | 0.00 | 0.00 | 0.00 | 68 | 1014.2 |
| 20260506213450 | 64 | 174 | 19.1 | 27.8 | 0.00 | 0.00 | 0.00 | 68 | 1014.4 |
| 20260506212454 | 64 | 221 | 16.5 | 26.9 | 0.00 | 0.00 | 0.00 | 68 | 1014.6 |
| 20260506211449 | 64 | 212 | 19.1 | 27.8 | 0.00 | 0.00 | 0.00 | 67 | 1014.6 |
| 20260506210441 | 64 | 203 | 15.6 | 22.6 | 0.00 | 0.00 | 0.00 | 66 | 1014.6 |
| 20260506205442 | 64 | 207 | 12.2 | 20.9 | 0.00 | 0.00 | 0.00 | 66 | 1014.7 |
| 20260506204444 | 65 | 177 | 15.6 | 26.9 | 0.00 | 0.00 | 0.00 | 64 | 1014.6 |
| 20260506203913 | 65 | 221 | 19.1 | 26.9 | 0.00 | 0.00 | 0.00 | 62 | 1014.7 |
| 20260506202948 | 66 | 217 | 18.2 | 27.8 | 0.00 | 0.00 | 0.00 | 64 | 1014.3 |
| 20260506201951 | 66 | 193 | 17.4 | 27.8 | 0.00 | 0.00 | 0.00 | 63 | 1014.4 |